sat.trackr.live / text

‹ back to catalog

STARLINK-32817

NORAD 63079 · 2025-037C

PAYLOAD ACTIVE UNKNOWN

§ Identity

Operator
Country
US
Launch date
2025-02-23
Launch site
AFWTR
Launch vehicle
Mass (kg)
RCS (m²)

Purposes: comms

External: N2YO · Heavens-Above · Gunter

§ Orbital elements

Epoch: 2026-05-25T03:00:52.195968Z

Period
96.11 min
Inclination
70.0001°
Eccentricity
0.0004096
Mean motion
14.98336594 rev/d
Perigee alt
569.2 km
Apogee alt
574.9 km
Semi-major
6,950.2 km
B*
2.4809e-4
RAAN
161.6392°
Arg perigee
266.8962°
Mean anomaly
93.1728°
Rev number
7,004

§ Raw data

STARLINK-328171 63079U 25037C   26145.12560412  .00002869  00000+0  24809-3 0  99912 63079  70.0001 161.6392 0004096 266.8962  93.1728 14.98336594 70044

JSON: /api/v1/satellites/63079 · /tle

For live sub-satellite position, see the globe view (requires WebGL).

§ Visibility from observer

Set your observer location to see the next 7 days of passes ≥ 10°. The values pass through the URL so the page stays shareable.

No JS? Fill the form by hand. The geolocation button needs JavaScript.